Satellite-Ground Cal/Val Site Overpasses Predictions

Prediction of Satellite NPP Overpassing Cal/Val Site: Antarctic Dome C

Ground Cal/Val Site Location: Latitude: -75.10, Longitude: 123.35; Satellite-Ground Site NADIR distance within 100 km.

Table of predicted overpasses for the next 14.0 days since TLE Epoch: 8/26/2023
Interval Starting Time Ending Time Minimum Distance Time Minimum Distance (km)
1 08/26/2023 14:56:14 08/26/2023 14:56:43 08/26/2023 14:56:29 19.94
2 08/27/2023 14:37:31 08/27/2023 14:37:45 08/27/2023 14:37:38 87.34
3 08/28/2023 07:39:03 08/28/2023 07:39:30 08/28/2023 07:39:17 39.21
4 08/29/2023 07:20:16 08/29/2023 07:20:36 08/29/2023 07:20:26 70.75
5 08/31/2023 15:02:29 08/31/2023 15:02:53 08/31/2023 15:02:41 56.84
6 09/01/2023 14:43:39 09/01/2023 14:44:04 09/01/2023 14:43:52 52.46
7 09/02/2023 07:45:20 09/02/2023 07:45:39 09/02/2023 07:45:29 74.42
8 09/03/2023 07:26:26 09/03/2023 07:26:53 09/03/2023 07:26:40 33.50
9 09/05/2023 15:08:50 09/05/2023 15:08:59 09/05/2023 15:08:55 94.52
10 09/06/2023 14:49:49 09/06/2023 14:50:18 09/06/2023 14:50:04 17.02
